Location: Unspecified
(0.0000°N, 0.0000°E)
Time: 23:07:57
(UTC+00:00)

Transit 2A Rocket - Pass Details

Date: 28 November 2019
Orbit: 584 x 919 km, 66.7° (Epoch: 02 July)

Event Time Altitude Azimuth Distance (km) Brightness Sun altitude
Rises 17:42:03 0° 201° (SSW) 3,366 9.0 1.4°
Reaches altitude 10° 17:44:36 10° 202° (SSW) 2,380 8.3 0.8°
Maximum altitude 17:50:03 84° 289° (WNW) 754 5.1 -0.5°
Drops below altitude 10° 17:54:57 10° 18° (NNE) 2,144 7.0 -1.6°
Sets 17:57:10 0° 19° (NNE) 3,008 7.7 -2.1°
